Aérodrome :
LOGIN :

S'inscrire | Disclaimer

   EN    FR    IT 

 










Légende :    VFR   VFR Marginal   IFR   IFR Intensif   IFR Très Intensif
Visi : 
Plafond : 
>= 8 km
>= 3000ft
5 à 8 km
1000 à 3000 ft
1500m à 5 km
500 à 1000 ft
800 à 1500m
200 à 500 ft
< 800m
< 200 ft
Symboles :   Orages  Brouillard  Fortes neiges  Fortes précipitations  Vent > 20 kt
SIGMETs :   Divers  Orages  Givrage  Turbulence  Onde Orograph.  Cendres Volcan.






- Altitude de l'aérodrome : 459 ft
- Code IATA : CER


LFRC - Cherbourg / Maupertus

DERNIER METAR :
  • 230230Z AUTO 23008KT 9999 BKN006/// OVC078/// ///CB 16/15 Q1004

METARs EXPIRÉS :
  • 230200Z AUTO 25010KT 9999 -RA BKN007/// OVC013/// ///TCU 16/15 Q1005
  • 230130Z AUTO 22009KT 9999 BKN010/// OVC015/// ///TCU 16/15 Q1005
  • 230100Z AUTO 21010KT 9999 BKN009/// BKN014/// BKN100/// ///TCU 16/16 Q1005
  • 230030Z AUTO 21012KT 9999 SCT008/// BKN012/// BKN019/// ///TCU 16/15 Q1005
  • 230000Z AUTO 20010KT 9999 BKN007 BKN012 OVC100 16/16 Q1006

Prévision TAF périmée.



MET'MAP, la Météo Aéronautique d'un coup d'oeil ! - Copyright ORBIFLY Décembre 2007 - Disclaimer

ORBIFLY MET'MAP TEAM :

Programmation & Développement : Alexandra Zaïnal
Sur une idée originale de : Baudouin d'Aumeries
Assistance à la programmation : Marc-Olivier Méhu
Soutien technique & logistique : Manuel Goepfert

Contact : metmap@orbifly.com




SOURCES & CREDITS :

   NOAA